This is the latest recevied weather packets stored in our database for station/object IW2NTF-3. If no packets are shown the sender has not sent any weather packets the latest 1 day(s).
| Time | Temp. | Humidity | Pressure | Rain* | Wind** | Luminosity | Snow |
|---|---|---|---|---|---|---|---|
| 1778050323 | 13.89° C | 90% | 1008 hPa | 0 mm | - | 128 W/m² | - |
| 1778050024 | 13.89° C | 90% | 1007.9 hPa | 0 mm | - | 153 W/m² | - |
| 1778049484 | 13.89° C | 90% | 1008 hPa | 0 mm | - | 128 W/m² | - |
| 1778049183 | 13.89° C | 90% | 1008.1 hPa | 0 mm | - | 111 W/m² | - |
| 1778048763 | 13.89° C | 91% | 1008.1 hPa | 0 mm | - | 63 W/m² | - |
| 1778048643 | 13.89° C | 91% | 1008.2 hPa | 0 mm | - | 62 W/m² | - |
| 1778048583 | 13.89° C | 91% | 1008.2 hPa | 0 mm | - | 67 W/m² | - |
| 1778048463 | 13.89° C | 91% | 1008.1 hPa | 0 mm | - | 62 W/m² | - |
| 1778048283 | 13.89° C | 91% | 1008.3 hPa | 0 mm | - | 56 W/m² | - |
| 1778048223 | 13.89° C | 91% | 1008.3 hPa | 0 mm | - | 49 W/m² | - |
| 1778048163 | 13.89° C | 91% | 1008.3 hPa | 0 mm | - | 51 W/m² | - |
| 1778048043 | 13.33° C | 91% | 1008.2 hPa | 0 mm | - | 49 W/m² | - |
| 1778047983 | 13.89° C | 91% | 1008.4 hPa | 0 mm | - | 53 W/m² | - |
| 1778047923 | 13.89° C | 91% | 1008.4 hPa | 0 mm | - | 58 W/m² | - |
| 1778047863 | 13.89° C | 91% | 1008.4 hPa | 0 mm | - | 60 W/m² | - |
| 1778047743 | 13.89° C | 91% | 1008.4 hPa | 0 mm | - | 76 W/m² | - |
| 1778047683 | 13.89° C | 91% | 1008.4 hPa | 0 mm | - | 74 W/m² | - |
| 1778047443 | 13.89° C | 91% | 1008.4 hPa | 0 mm | - | 51 W/m² | - |
| 1778046783 | 13.89° C | 91% | 1008.6 hPa | 0 mm | - | 25 W/m² | - |
| 1778046604 | 13.89° C | 91% | 1008.5 hPa | 0 mm | - | 19 W/m² | - |
| 1778046543 | 13.89° C | 91% | 1008.5 hPa | 0 mm | - | 21 W/m² | - |
| 1778046183 | 13.89° C | 91% | 1008.4 hPa | 0 mm | - | 42 W/m² | - |
| 1778046123 | 13.89° C | 91% | 1008.5 hPa | 0 mm | - | 44 W/m² | - |
| 1778046063 | 13.89° C | 91% | 1008.5 hPa | 0 mm | - | 33 W/m² | - |
| 1778045943 | 13.89° C | 91% | 1008.4 hPa | 0 mm | - | 44 W/m² | - |
* Rain latest hour (hover to see other rain measurements)
** Current wind speed in m/s (hover to see current wind gust speed)